User: anonymous   Login
Location: Unspecified
(0.0000°N, 0.0000°E)
Time: 14:16:35
(UTC+00:00)
Language:

Alouette 1 - Orbit

View from above orbital plane
View from above orbital plane
View from above satellite
View from above satellite

Ground track
Ground track

The orbit data is extracted from the following two-line orbital elements,

1   424U 62049A   19111.67657865 +.00000037 +00000-0 +32268-4 0  9999
2   424 080.4658 321.2531 0023335 137.1127 285.4771 13.69125156823228
Epoch (UTC): 21 April 2019 16:14:16
Eccentricity: 0.0023335
inclination: 80.4658°
perigee height: 985 km
apogee height: 1020 km
right ascension of ascending node: 321.2531°
argument of perigee: 137.1127°
revolutions per day: 13.69125156
mean anomaly at epoch: 285.4771°
orbit number at epoch: 82322

The dashed part of the orbit path shows where the satellite is in the earth's shadow,  

DLR